Date,TemperatureHighF,TemperatureAvgF,TemperatureLowF,DewpointHighF,DewpointAvgF,DewpointLowF,HumidityHigh,HumidityAvg,HumidityLow,PressureMaxIn,PressureMinIn,WindSpeedMaxMPH,WindSpeedAvgMPH,GustSpeedMaxMPH,PrecipitationSumIn
2013-2-1,29.3,26.4,21.2,2.9,-6.9,-11.9,39,22,21,30.24,29.82,25,6,26,1.37
2013-2-2,29.8,23.1,15.8,8.1,-7.5,-15.3,48,26,20,30.30,30.00,16,4,17,0.00
2013-2-3,29.8,25.8,22.8,12.6,4.6,-0.7,55,40,30,30.00,29.76,21,2,21,0.00
2013-2-4,29.8,25.2,20.1,1.7,-6.1,-10.1,31,25,23,30.00,29.82,23,5,23,0.00
2013-2-5,32.7,30.6,27.9,17.3,9.7,1.8,53,41,31,29.91,29.82,6,2,6,0.00
2013-2-6,38.7,32.0,24.8,19.5,7.0,-4.4,71,38,21,30.33,29.88,18,4,18,0.04
2013-2-7,34.7,28.5,21.2,3.5,-1.9,-7.0,44,27,22,30.44,30.24,14,3,14,0.00
2013-2-8,36.7,34.2,32.0,24.4,17.4,0.6,72,51,25,30.24,29.65,22,6,22,0.25
2013-2-9,33.6,28.0,22.1,24.9,1.4,-10.9,73,34,22,30.33,29.76,27,8,27,1.66
2013-2-10,41.7,29.0,16.2,4.7,-4.1,-12.6,28,23,21,30.44,30.24,10,3,10,0.00
2013-2-11,49.8,40.5,32.2,44.5,27.5,-1.4,83,63,23,30.27,29.65,19,2,19,0.41
2013-2-12,45.9,40.3,29.8,26.0,5.6,-1.9,50,24,20,29.97,29.74,26,6,26,0.00
2013-2-13,44.8,34.0,23.9,26.5,8.8,2.8,76,38,20,29.94,29.65,11,2,11,0.00
2013-2-14,47.5,37.3,31.1,27.9,15.0,2.1,78,45,19,30.00,29.68,10,2,10,0.25
2013-2-15,57.9,43.8,32.7,19.3,11.3,4.7,51,28,17,30.00,29.68,14,3,14,0.00
2013-2-16,37.9,34.3,29.7,24.3,8.0,-3.6,65,35,23,29.97,29.71,15,4,15,0.04
2013-2-17,31.1,26.5,20.3,-2.7,-6.7,-12.5,24,23,21,30.03,29.71,29,9,29,0.00
2013-2-18,36.9,26.6,18.1,1.4,-6.7,-13.4,23,23,21,30.27,30.03,24,6,24,0.04
2013-2-19,45.1,37.6,26.1,29.1,10.4,-6.0,55,34,20,30.15,29.65,21,4,21,2.53
2013-2-20,35.8,29.2,24.1,5.1,-3.9,-9.4,27,23,21,30.03,29.74,27,8,27,0.05
2013-2-21,34.7,28.2,23.4,-0.2,-4.7,-9.9,24,23,22,30.27,29.97,25,8,25,0.05
2013-2-22,37.2,30.5,22.5,13.2,-1.6,-8.2,40,25,22,30.36,30.18,11,3,11,0.00
2013-2-23,46.6,40.2,34.7,40.4,32.3,13.0,83,74,40,30.21,29.76,16,4,16,1.33
2013-2-24,46.8,38.3,30.9,30.9,13.9,-2.5,76,42,21,30.00,29.74,24,6,24,0.04
2013-2-25,45.3,35.9,28.0,6.6,1.8,-4.1,33,23,20,30.21,30.00,13,3,13,0.04
2013-2-26,45.3,35.6,25.5,23.7,9.9,2.5,56,35,22,30.24,29.76,25,5,25,0.41
2013-2-27,51.1,44.6,37.9,41.3,25.6,14.9,78,51,27,29.79,29.47,24,6,24,0.25
2013-2-28,45.9,41.8,35.6,18.4,10.5,4.2,39,28,20,29.68,29.56,14,4,18,0.00